Location: Saint-Restitut
(44.3351°N, 4.7915°E)
Time: 01:42:24
(UTC+00:00)

Cosmos 1544 Rocket - Pass Details

Date: 03 February 2023
Orbit: 604 x 628 km, 82.5° (Epoch: 27 March)

Event Time Altitude Azimuth Distance (km) Brightness Sun altitude
Rises 17:21:49 0° 347° (NNW) 2,870 6.9 -5.7°
Reaches altitude 10° 17:24:04 10° 343° (NNW) 1,961 6.2 -6.1°
Maximum altitude 17:28:18 55° 266° (W) 730 4.4 -6.8°
Drops below altitude 10° 17:32:31 10° 188° (S) 1,951 6.5 -7.6°
Sets 17:34:45 0° 184° (S) 2,853 7.2 -8.0°
